Waarnemingen

Advertentie
Mijn weer
J6-A, Nederland (6211): temperatuur & dauwpunt: 18.11.2017 17:00:00 - 24.11.2017 17:00:00 (CET)J6-A, Nederland (6211): windsnelheid & windstoten: 18.11.2017 17:00:00 - 24.11.2017 17:00:00 (CET)J6-A, Nederland (6211): windrichting: 18.11.2017 17:00:00 - 24.11.2017 17:00:00 (CET)J6-A, Nederland (6211): luchtdruk: 18.11.2017 17:00:00 - 24.11.2017 17:00:00 (CET)J6-A, Nederland (6211): zicht: 18.11.2017 17:00:00 - 24.11.2017 17:00:00 (CET)
Datum & Tijd tt [°C] td [°C] ff [km/u] ff [kn] fx [km/u] fx [kn] dd ppp [hPa] vv [km]
24.11.2017 17:00:00 7,8 0,6 39 21 43 23 W 1009,5 10
24.11.2017 16:00:00 7,8 0,2 37 20 - - W 1009,1 10
24.11.2017 15:00:00 7,8 0,4 39 21 40 21 W 1008,7 10
24.11.2017 14:00:00 7,8 0,7 41 22 43 23 WZW 1008,7 10
24.11.2017 13:00:00 7,9 1,3 37 20 - - W 1008,3 10
24.11.2017 12:00:00 8,2 -0,4 35 19 36 19 W 1008,0 10
24.11.2017 11:00:00 8,3 1,3 29 16 32 18 W 1007,6 10
24.11.2017 10:00:00 8,2 0,8 29 16 - - W 1006,9 10
24.11.2017 09:00:00 8,2 1,0 31 17 32 18 W 1006,3 10
24.11.2017 08:00:00 8,2 0,5 35 19 36 19 W 1005,8 10
24.11.2017 07:00:00 8,4 1,6 37 20 - - W 1004,7 10
24.11.2017 06:00:00 8,3 1,8 37 20 40 21 W 1004,5 10
24.11.2017 05:00:00 8,5 2,0 39 21 40 21 W 1004,1 10
24.11.2017 04:00:00 8,6 2,1 39 21 - - W 1004,2 10
24.11.2017 03:00:00 8,8 2,6 42 23 43 23 WZW 1003,9 10
24.11.2017 02:00:00 8,8 2,5 46 25 47 25 WZW 1003,6 10
24.11.2017 01:00:00 9,1 3,5 50 27 - - WZW 1003,5 10
24.11.2017 00:00:00 9,2 3,0 55 30 54 29 WZW 1003,9 10
23.11.2017 23:00:00 9,4 3,8 54 29 58 31 WZW 1003,0 10
23.11.2017 22:00:00 9,5 3,5 59 32 - - WZW 1002,6 10
23.11.2017 21:00:00 9,6 2,8 59 32 68 37 WZW 1001,5 10
23.11.2017 20:00:00 9,8 2,4 70 38 79 43 WZW 1000,7 10
23.11.2017 19:00:00 10,3 2,7 80 43 - - WZW 999,0 10
23.11.2017 18:00:00 10,9 4,4 78 42 83 45 ZW 997,5 10
23.11.2017 17:00:00 10,9 4,5 76 41 83 45 ZW 996,7 10
23.11.2017 16:00:00 10,4 3,0 67 36 - - ZW 995,9 10
23.11.2017 15:00:00 10,0 3,3 68 37 76 41 ZW 995,0 10
23.11.2017 14:00:00 9,4 3,1 61 33 65 35 ZW 994,5 10
23.11.2017 13:00:00 9,4 1,4 65 35 - - WZW 993,6 10
23.11.2017 12:00:00 9,3 3,1 68 37 68 37 WZW 992,3 10
23.11.2017 11:00:00 9,8 4,5 68 37 65 35 WZW 990,6 10
23.11.2017 10:00:00 9,7 8,0 67 36 - - W 988,0 8
23.11.2017 09:00:00 12,2 10,4 57 31 65 35 ZZW 985,9 9
23.11.2017 08:00:00 12,3 10,5 65 35 68 37 ZZW 985,3 -
23.11.2017 07:00:00 13,1 9,3 63 34 - - Z 985,2 -
23.11.2017 06:00:00 13,4 8,8 70 38 76 41 Z 985,3 -
23.11.2017 05:00:00 13,5 8,7 74 40 79 43 Z 985,3 -
23.11.2017 04:00:00 13,6 9,1 72 39 - - Z 985,8 -
23.11.2017 03:00:00 13,7 9,1 68 37 72 39 Z 986,2 -
23.11.2017 02:00:00 13,5 9,2 70 38 72 39 Z 987,1 -
23.11.2017 01:00:00 13,5 8,9 70 38 - - Z 988,0 -
23.11.2017 00:00:00 13,8 8,4 72 39 76 41 Z 988,4 -
22.11.2017 23:00:00 13,2 8,2 72 39 72 39 Z 988,7 -
22.11.2017 22:00:00 13,2 7,5 72 39 - - Z 989,8 -
22.11.2017 21:00:00 13,1 7,6 68 37 68 37 Z 990,2 -
22.11.2017 20:00:00 12,9 7,8 67 36 68 37 Z 991,8 -
22.11.2017 19:00:00 12,4 8,7 65 35 - - Z 993,0 -
22.11.2017 18:00:00 12,3 8,9 63 34 65 35 Z 993,4 -
22.11.2017 17:00:00 12,4 9,1 63 34 65 35 Z 993,4 -
22.11.2017 16:00:00 12,5 9,2 61 33 - - Z 994,1 -
22.11.2017 15:00:00 12,4 9,9 61 33 61 33 Z 994,5 -
22.11.2017 14:00:00 12,4 9,8 59 32 61 33 Z 995,4 10
22.11.2017 13:00:00 12,2 9,9 65 35 - - ZZW 995,9 9
22.11.2017 12:00:00 12,3 9,9 59 32 61 33 Z 996,6 10
22.11.2017 11:00:00 12,2 9,8 55 30 54 29 ZZW 997,1 10
22.11.2017 10:00:00 12,5 9,9 59 32 - - ZZW 996,9 10
22.11.2017 09:00:00 12,7 10,8 67 36 68 37 ZZW 997,0 10
22.11.2017 08:00:00 12,6 10,9 50 27 58 31 ZZW 997,1 10
22.11.2017 07:00:00 12,5 10,9 59 32 - - ZZW 997,1 10
22.11.2017 06:00:00 12,3 10,8 48 26 50 27 ZZW 997,7 10
22.11.2017 05:00:00 12,4 10,8 54 29 61 33 ZZW 998,0 10
22.11.2017 04:00:00 12,5 10,8 63 34 - - ZZW 997,9 10
22.11.2017 03:00:00 12,5 10,7 63 34 65 35 ZZW 998,1 10
22.11.2017 02:00:00 12,5 10,6 61 33 65 35 ZW 998,5 10
22.11.2017 01:00:00 12,1 10,5 65 35 - - ZW 998,7 10
22.11.2017 00:00:00 11,4 11,2 61 33 68 37 ZZW 999,3 4,6
21.11.2017 23:00:00 10,8 10,6 50 27 58 31 ZZW 1000,0 3,8
21.11.2017 22:00:00 10,9 10,0 54 29 - - ZZW 1001,1 10
21.11.2017 21:00:00 11,5 9,4 48 26 54 29 ZW 1001,6 10
21.11.2017 20:00:00 11,5 9,4 46 25 47 25 ZW 1002,2 10
21.11.2017 19:00:00 11,6 9,4 48 26 - - ZW 1003,2 10
21.11.2017 18:00:00 11,5 10,1 44 24 50 27 ZW 1003,5 10
21.11.2017 17:00:00 11,5 10,6 52 28 58 31 ZW 1004,0 9
21.11.2017 16:00:00 11,9 10,6 54 29 - - WZW 1004,4 10
21.11.2017 15:00:00 12,0 11,0 54 29 50 27 WZW 1004,7 7
21.11.2017 14:00:00 11,8 11,1 37 20 36 19 WZW 1004,7 10
21.11.2017 13:00:00 11,3 11,1 22 12 - - ZZW 1005,9 7
21.11.2017 12:00:00 11,0 10,8 13 7 14 8 Z 1006,7 4,5
21.11.2017 11:00:00 11,0 10,9 15 8 18 10 ZZW 1007,2 3,8
21.11.2017 10:00:00 11,0 10,8 21 11 - - ZW 1007,5 2,9
21.11.2017 09:00:00 11,1 10,7 26 14 25 14 WZW 1007,6 7
21.11.2017 08:00:00 11,0 10,4 26 14 25 14 WZW 1007,5 6
21.11.2017 07:00:00 11,1 10,4 26 14 - - WZW 1007,4 10
21.11.2017 06:00:00 11,1 10,4 24 13 25 14 W 1007,7 10
21.11.2017 05:00:00 11,3 10,4 26 14 25 14 WZW 1007,7 10
21.11.2017 04:00:00 11,5 10,4 22 12 - - W 1008,1 10
21.11.2017 03:00:00 11,1 9,6 26 14 32 18 W 1008,1 10
21.11.2017 02:00:00 10,9 9,6 39 21 36 19 WNW 1008,1 10
21.11.2017 01:00:00 11,1 10,6 34 18 - - W 1008,1 7
21.11.2017 00:00:00 11,5 10,5 31 17 29 16 W 1008,1 10
20.11.2017 23:00:00 11,0 9,9 22 12 40 21 WNW 1007,8 10
20.11.2017 22:00:00 11,7 10,4 29 16 - - WNW 1007,6 10
20.11.2017 21:00:00 11,4 10,4 34 18 40 21 WNW 1007,2 10
20.11.2017 20:00:00 11,3 10,5 44 24 47 25 WNW 1007,1 4,4
20.11.2017 19:00:00 11,6 10,4 44 24 - - W 1006,5 10
20.11.2017 18:00:00 11,6 10,8 48 26 50 27 W 1006,1 10
20.11.2017 17:00:00 11,4 11,0 44 24 54 29 W 1005,9 6
20.11.2017 16:00:00 11,5 10,4 52 28 - - WZW 1005,9 10
20.11.2017 15:00:00 11,1 10,6 50 27 50 27 WZW 1006,2 3,3
20.11.2017 14:00:00 10,4 10,0 35 19 40 21 WZW 1007,3 -
20.11.2017 13:00:00 9,8 9,2 35 19 - - ZW 1008,5 -
20.11.2017 12:00:00 9,5 8,6 37 20 40 21 ZW 1009,8 -
20.11.2017 11:00:00 9,2 8,4 35 19 36 19 ZZW 1010,8 -
20.11.2017 10:00:00 8,6 7,8 26 14 - - ZZW 1011,7 -
20.11.2017 09:00:00 7,7 6,8 34 18 36 19 Z 1012,7 -
20.11.2017 08:00:00 7,5 5,3 29 16 32 18 Z 1013,7 -
20.11.2017 07:00:00 7,0 4,6 24 13 - - ZZW 1015,0 10
20.11.2017 06:00:00 7,1 3,2 24 13 29 16 ZW 1016,0 10
20.11.2017 05:00:00 6,9 2,6 29 16 36 19 ZW 1016,8 10
20.11.2017 04:00:00 7,4 1,5 37 20 - - WZW 1017,2 10
20.11.2017 03:00:00 8,3 1,5 29 16 36 19 WZW 1017,7 10
20.11.2017 02:00:00 8,2 1,5 35 19 40 21 W 1018,2 10
20.11.2017 01:00:00 8,5 3,3 34 18 - - W 1018,8 10
20.11.2017 00:00:00 8,5 1,0 39 21 40 21 W 1019,1 10
19.11.2017 23:00:00 8,6 -0,1 37 20 40 21 WNW 1019,3 10
19.11.2017 22:00:00 8,7 0,4 39 21 - - WNW 1019,6 10
19.11.2017 21:00:00 8,8 1,8 42 23 43 23 WNW 1019,6 10
19.11.2017 20:00:00 8,1 2,3 52 28 50 27 WNW 1019,5 10
19.11.2017 19:00:00 8,3 3,0 44 24 - - WNW 1019,1 10
19.11.2017 18:00:00 8,6 2,4 48 26 47 25 WNW 1019,0 10
19.11.2017 17:00:00 8,1 3,5 50 27 54 29 NW 1018,9 10
19.11.2017 16:00:00 8,7 2,6 55 30 - - NW 1018,6 10
19.11.2017 15:00:00 8,8 3,0 54 29 58 31 NW 1018,4 25
19.11.2017 14:00:00 8,8 3,3 57 31 61 33 WNW 1018,1 10
19.11.2017 13:00:00 8,7 3,8 57 31 - - NW 1018,1 10
19.11.2017 12:00:00 8,3 4,0 61 33 65 35 NW 1018,0 10
19.11.2017 11:00:00 8,4 3,2 67 36 72 39 NW 1017,1 10
19.11.2017 10:00:00 8,3 4,0 65 35 - - NW 1016,8 10
19.11.2017 09:00:00 8,6 4,1 68 37 76 41 NW 1016,3 9
19.11.2017 08:00:00 8,7 4,1 70 38 76 41 NW 1015,9 -
19.11.2017 07:00:00 8,9 2,7 74 40 - - NW 1015,4 -
19.11.2017 06:00:00 9,1 3,2 63 34 72 39 NW 1014,9 10
19.11.2017 05:00:00 8,9 2,1 68 37 72 39 NW 1014,8 10
19.11.2017 04:00:00 9,0 2,1 65 35 - - WNW 1014,3 10
19.11.2017 03:00:00 7,3 4,1 63 34 72 39 NW 1014,8 10
19.11.2017 02:00:00 9,0 1,7 63 34 65 35 WNW 1014,1 10
19.11.2017 01:00:00 8,7 2,2 67 36 - - WNW 1014,3 10
19.11.2017 00:00:00 9,0 1,0 57 31 65 35 WNW 1014,0 10
18.11.2017 23:00:00 8,3 0,2 57 31 65 35 WNW 1014,3 10
18.11.2017 22:00:00 8,6 -1,3 59 32 - - WNW 1014,6 10
18.11.2017 21:00:00 7,5 2,3 59 32 76 41 WNW 1014,4 10
18.11.2017 20:00:00 7,3 1,4 48 26 68 37 W 1014,8 10
18.11.2017 19:00:00 8,2 1,0 54 29 - - NW 1014,7 10
18.11.2017 18:00:00 8,5 -0,4 52 28 58 31 WNW 1014,8 10
18.11.2017 17:00:00 8,4 0,4 54 29 54 29 WNW 1015,1 10

tt = temperatuur
td = dauwpunt
ff = windsnelheid
fx = windstoten
dd = windrichting
ppp = luchtdruk
vv = zicht

Weerstations in de omgeving